Location: Podia
(1.5569°N, 32.3469°E)
Time: 13:48:36
(UTC+00:00)

Okean 1-7 - Pass Details

Date: 01 June 2020
Orbit: 591 x 618 km, 82.5° (Epoch: 04 July)

Event Time Altitude Azimuth Distance (km) Brightness Sun altitude
Exits shadow 17:19:39 - 190° (S) 2,461 6.0 -20.4°
Reaches altitude 10° 17:20:54 10° 191° (SSW) 1,953 5.5 -20.6°
Maximum altitude 17:25:11 66° 273° (W) 658 3.3 -21.6°
Drops below altitude 10° 17:29:25 10° 356° (N) 1,929 5.9 -22.6°
Sets 17:31:37 0° 359° (N) 2,824 6.8 -23.1°
